TAP431 LFPO-LPPT

Flight info

Callsign TAP431
Flight time 2h 3m
Altitude 39000
Route LGL2Q LGL UT176 KURIS UN872 ERIGA UZ218 FUJTI DCT BAKUP DCT BATAX DCT INBOM INBOM2A
Aircraft A339/H-SADE1E2E3GHIJ3J5M1P2RWXY/LB2D1

Departure

Time 2026-05-06 19:47
Airport Paris-Orly Airport (LFPO)

Arrival

Time 2026-05-06 21:50
Airport Lisbon Humberto Delgado Airport (LPPT)
Time Latitude Longitude Altitude Speed Heading
2026-05-06 19:33 48.72569 2.36073 301 ft 0 kts 45°
2026-05-06 19:38 48.72567 2.36070 297 ft 1 kts 45°
2026-05-06 19:38 48.72559 2.36059 301 ft 1 kts 44°
2026-05-06 19:38 48.72559 2.36058 301 ft 0 kts 44°
2026-05-06 19:39 48.72554 2.36051 301 ft 2 kts 42°
2026-05-06 19:39 48.72545 2.36036 298 ft 2 kts 14°
2026-05-06 19:39 48.72532 2.36031 297 ft 2 kts 349°
2026-05-06 19:39 48.72519 2.36034 298 ft 2 kts 341°
2026-05-06 19:40 48.72507 2.36040 297 ft 2 kts 316°
2026-05-06 19:40 48.72493 2.36060 300 ft 0 kts 304°
2026-05-06 19:42 48.72494 2.36058 300 ft 2 kts 304°
2026-05-06 19:42 48.72492 2.35988 298 ft 12 kts 257°
2026-05-06 19:42 48.72480 2.35845 296 ft 12 kts 271°
2026-05-06 19:42 48.72503 2.35717 297 ft 12 kts 318°
2026-05-06 19:43 48.72589 2.35671 300 ft 14 kts 343°
2026-05-06 19:43 48.72695 2.35625 300 ft 17 kts 344°
2026-05-06 19:43 48.72816 2.35575 302 ft 17 kts 343°
2026-05-06 19:43 48.72834 2.35566 302 ft 3 kts 341°
2026-05-06 19:44 48.72869 2.35548 301 ft 7 kts 341°
2026-05-06 19:44 48.72928 2.35525 301 ft 10 kts 353°
2026-05-06 19:44 48.73007 2.35558 300 ft 13 kts 33°
2026-05-06 19:44 48.73070 2.35685 303 ft 17 kts 57°
2026-05-06 19:45 48.73141 2.35852 302 ft 21 kts 57°
2026-05-06 19:45 48.73224 2.36049 304 ft 24 kts 58°
2026-05-06 19:45 48.73299 2.36091 305 ft 11 kts 338°
2026-05-06 19:45 48.73386 2.36089 304 ft 15 kts 17°
2026-05-06 19:46 48.73494 2.36069 301 ft 18 kts 331°
2026-05-06 19:46 48.73502 2.35944 302 ft 14 kts 246°
2026-05-06 19:46 48.73334 2.35463 299 ft 98 kts 242°
2026-05-06 19:46 48.72866 2.34167 322 ft 173 kts 242°
2026-05-06 19:47 48.72257 2.32492 838 ft 193 kts 244°
2026-05-06 19:47 48.71811 2.31245 1310 ft 204 kts 244°
2026-05-06 19:47 48.70807 2.28766 2400 ft 217 kts 238°
2026-05-06 19:47 48.69893 2.26805 2831 ft 238 kts 237°
2026-05-06 19:48 48.68926 2.24645 3190 ft 259 kts 239°
2026-05-06 19:48 48.67942 2.22320 3839 ft 264 kts 239°
2026-05-06 19:48 48.66965 2.19963 4647 ft 265 kts 239°
2026-05-06 19:48 48.66307 2.18356 5151 ft 266 kts 240°
2026-05-06 19:49 48.65474 2.15835 5863 ft 269 kts 246°
2026-05-06 19:49 48.64685 2.13264 6634 ft 271 kts 246°
2026-05-06 19:49 48.63889 2.10656 7322 ft 275 kts 247°
2026-05-06 19:49 48.63086 2.08012 8024 ft 278 kts 248°
2026-05-06 19:50 48.62691 2.05197 8687 ft 280 kts 272°
2026-05-06 19:50 48.63088 2.02328 9430 ft 281 kts 291°
2026-05-06 19:50 48.63807 1.99547 10110 ft 286 kts 293°
2026-05-06 19:50 48.64581 1.96686 10414 ft 304 kts 293°
2026-05-06 19:51 48.65390 1.93613 10622 ft 324 kts 292°
2026-05-06 19:51 48.66213 1.90360 11040 ft 335 kts 292°
2026-05-06 19:51 48.66999 1.87030 11697 ft 338 kts 289°
2026-05-06 19:51 48.67708 1.83633 12342 ft 341 kts 288°
2026-05-06 19:52 48.68401 1.80170 12990 ft 344 kts 288°
2026-05-06 19:52 48.69098 1.76689 13637 ft 348 kts 288°
2026-05-06 19:52 48.69810 1.73177 14229 ft 350 kts 288°
2026-05-06 19:52 48.70534 1.69643 14808 ft 353 kts 288°
2026-05-06 19:53 48.71265 1.66085 15405 ft 356 kts 288°
2026-05-06 19:53 48.72004 1.62494 15987 ft 358 kts 288°
2026-05-06 19:53 48.72746 1.58882 16567 ft 361 kts 288°
2026-05-06 19:53 48.73494 1.55236 17143 ft 364 kts 288°
2026-05-06 19:54 48.74245 1.51560 17721 ft 366 kts 288°
2026-05-06 19:54 48.74837 1.47788 18266 ft 371 kts 281°
2026-05-06 19:54 48.75092 1.43889 18770 ft 374 kts 275°
2026-05-06 19:54 48.75256 1.39940 19281 ft 377 kts 275°
2026-05-06 19:55 48.75436 1.35969 19785 ft 379 kts 275°
2026-05-06 19:55 48.75623 1.31967 20300 ft 382 kts 275°
2026-05-06 19:55 48.75813 1.27932 20813 ft 385 kts 275°
2026-05-06 19:55 48.76004 1.23874 21338 ft 388 kts 275°
2026-05-06 19:56 48.76194 1.19780 21858 ft 391 kts 275°
2026-05-06 19:56 48.76383 1.15659 22379 ft 394 kts 274°
2026-05-06 19:56 48.76572 1.11501 22907 ft 396 kts 274°
2026-05-06 19:56 48.76760 1.07316 23426 ft 400 kts 274°
2026-05-06 19:57 48.76948 1.03097 23889 ft 402 kts 274°
2026-05-06 19:57 48.77135 0.98853 24350 ft 405 kts 274°
2026-05-06 19:57 48.77322 0.94590 24812 ft 407 kts 274°
2026-05-06 19:57 48.77510 0.90290 25239 ft 410 kts 274°
2026-05-06 19:58 48.77696 0.85967 25687 ft 412 kts 274°
2026-05-06 19:58 48.77883 0.81617 26129 ft 415 kts 274°
2026-05-06 19:58 48.78068 0.77242 26565 ft 417 kts 274°
2026-05-06 19:58 48.78251 0.72893 26979 ft 420 kts 274°
2026-05-06 19:59 48.78435 0.68464 27415 ft 422 kts 274°
2026-05-06 19:59 48.78620 0.63992 27839 ft 425 kts 274°
2026-05-06 19:59 48.78777 0.59523 28226 ft 427 kts 270°
2026-05-06 19:59 48.78448 0.55033 28617 ft 431 kts 257°
2026-05-06 20:00 48.77456 0.50743 29003 ft 434 kts 245°
2026-05-06 20:00 48.75846 0.46854 29387 ft 438 kts 232°
2026-05-06 20:00 48.73861 0.43335 29747 ft 441 kts 229°
2026-05-06 20:00 48.71810 0.39863 30126 ft 443 kts 229°
2026-05-06 20:01 48.69755 0.36361 30436 ft 446 kts 230°
2026-05-06 20:01 48.67709 0.32815 30776 ft 449 kts 230°
2026-05-06 20:01 48.65663 0.29224 31102 ft 452 kts 230°
2026-05-06 20:01 48.63613 0.25607 31423 ft 454 kts 230°
2026-05-06 20:02 48.61555 0.21968 31734 ft 457 kts 230°
2026-05-06 20:02 48.59480 0.18305 32033 ft 460 kts 231°
2026-05-06 20:02 48.57391 0.14620 32353 ft 463 kts 231°
2026-05-06 20:02 48.55301 0.10913 32615 ft 465 kts 231°
2026-05-06 20:03 48.53205 0.07181 32846 ft 468 kts 231°
2026-05-06 20:03 48.51097 0.03430 33062 ft 470 kts 231°
2026-05-06 20:03 48.48975 -0.00337 33254 ft 472 kts 231°
2026-05-06 20:03 48.46847 -0.04106 33433 ft 473 kts 231°
2026-05-06 20:04 48.44708 -0.07886 33629 ft 474 kts 231°
2026-05-06 20:04 48.42566 -0.11667 33863 ft 474 kts 231°
2026-05-06 20:04 48.40425 -0.15439 34067 ft 474 kts 231°
2026-05-06 20:04 48.38283 -0.19206 34269 ft 474 kts 231°
2026-05-06 20:05 48.36144 -0.22965 34478 ft 473 kts 231°
2026-05-06 20:05 48.34000 -0.26725 34677 ft 473 kts 231°
2026-05-06 20:05 48.31846 -0.30455 34899 ft 473 kts 230°
2026-05-06 20:05 48.29685 -0.34175 35088 ft 472 kts 230°
2026-05-06 20:06 48.27526 -0.37885 35285 ft 472 kts 230°
2026-05-06 20:06 48.25367 -0.41597 35489 ft 472 kts 230°
2026-05-06 20:06 48.23210 -0.45301 35687 ft 471 kts 230°
2026-05-06 20:06 48.21054 -0.49000 35889 ft 471 kts 230°
2026-05-06 20:07 48.18896 -0.52699 36091 ft 471 kts 230°
2026-05-06 20:07 48.16743 -0.56385 36289 ft 470 kts 230°
2026-05-06 20:07 48.14589 -0.60068 36482 ft 470 kts 230°
2026-05-06 20:07 48.12434 -0.63745 36686 ft 469 kts 230°
2026-05-06 20:08 48.10281 -0.67415 36870 ft 469 kts 230°
2026-05-06 20:08 48.08129 -0.71078 37082 ft 469 kts 230°
2026-05-06 20:08 48.05979 -0.74734 37267 ft 468 kts 230°
2026-05-06 20:08 48.03825 -0.78389 37467 ft 468 kts 230°
2026-05-06 20:09 48.01674 -0.82035 37649 ft 468 kts 230°
2026-05-06 20:09 47.99525 -0.85673 37839 ft 467 kts 230°
2026-05-06 20:09 47.97375 -0.89307 38009 ft 467 kts 230°
2026-05-06 20:09 47.95223 -0.92939 38203 ft 467 kts 230°
2026-05-06 20:10 47.93073 -0.96562 38400 ft 466 kts 229°
2026-05-06 20:10 47.90924 -1.00181 38572 ft 466 kts 229°
2026-05-06 20:10 47.88777 -1.03791 38728 ft 466 kts 229°
2026-05-06 20:10 47.86626 -1.07401 38878 ft 465 kts 229°
2026-05-06 20:11 47.84905 -1.10288 38966 ft 465 kts 229°
2026-05-06 20:11 47.80609 -1.17476 39001 ft 464 kts 229°
2026-05-06 20:12 47.76314 -1.24645 38982 ft 464 kts 229°
2026-05-06 20:12 47.72017 -1.31796 38977 ft 464 kts 229°
2026-05-06 20:13 47.67714 -1.38939 38979 ft 466 kts 229°
2026-05-06 20:13 47.63366 -1.46138 38995 ft 471 kts 229°
2026-05-06 20:14 47.58980 -1.53383 38992 ft 473 kts 229°
2026-05-06 20:14 47.54602 -1.60601 38990 ft 475 kts 229°
2026-05-06 20:15 47.50178 -1.67880 38971 ft 476 kts 229°
2026-05-06 20:15 47.45741 -1.75159 38973 ft 477 kts 229°
2026-05-06 20:16 47.41298 -1.82428 38987 ft 477 kts 229°
2026-05-06 20:16 47.36777 -1.89587 38992 ft 477 kts 225°
2026-05-06 20:17 47.31625 -1.95781 38991 ft 479 kts 216°
2026-05-06 20:17 47.25944 -2.00926 38995 ft 480 kts 212°
2026-05-06 20:18 47.20230 -2.05997 38992 ft 480 kts 212°
2026-05-06 20:18 47.14519 -2.11084 38989 ft 480 kts 212°
2026-05-06 20:19 47.08806 -2.16162 38982 ft 480 kts 212°
2026-05-06 20:19 47.03094 -2.21225 38986 ft 480 kts 212°
2026-05-06 20:20 46.97376 -2.26280 38986 ft 480 kts 212°
2026-05-06 20:20 46.91656 -2.31323 38989 ft 480 kts 212°
2026-05-06 20:21 46.85934 -2.36357 38989 ft 480 kts 212°
2026-05-06 20:21 46.80207 -2.41387 38990 ft 480 kts 212°
2026-05-06 20:22 46.74486 -2.46401 38991 ft 480 kts 212°
2026-05-06 20:22 46.68759 -2.51408 38996 ft 480 kts 212°
2026-05-06 20:23 46.63033 -2.56402 38997 ft 480 kts 212°
2026-05-06 20:23 46.57302 -2.61387 39001 ft 480 kts 212°
2026-05-06 20:24 46.51570 -2.66361 39003 ft 480 kts 212°
2026-05-06 20:24 46.45839 -2.71321 39005 ft 480 kts 212°
2026-05-06 20:25 46.40103 -2.76273 39003 ft 480 kts 212°
2026-05-06 20:25 46.34370 -2.81211 39004 ft 480 kts 212°
2026-05-06 20:26 46.28634 -2.86139 39008 ft 479 kts 212°
2026-05-06 20:26 46.22906 -2.91077 39007 ft 479 kts 212°
2026-05-06 20:27 46.17204 -2.96056 39004 ft 479 kts 212°
2026-05-06 20:27 46.11497 -3.01027 39007 ft 479 kts 212°
2026-05-06 20:28 46.05792 -3.05974 39011 ft 479 kts 212°
2026-05-06 20:28 46.00081 -3.10910 39011 ft 479 kts 212°
2026-05-06 20:29 45.94369 -3.15837 39012 ft 479 kts 212°
2026-05-06 20:29 45.88695 -3.20718 39010 ft 479 kts 212°
2026-05-06 20:30 45.80118 -3.28074 39019 ft 479 kts 212°
2026-05-06 20:31 45.74403 -3.32961 39013 ft 479 kts 212°
2026-05-06 20:31 45.68681 -3.37842 39016 ft 478 kts 212°
2026-05-06 20:32 45.62962 -3.42709 39019 ft 478 kts 212°
2026-05-06 20:32 45.57241 -3.47565 39017 ft 478 kts 212°
2026-05-06 20:33 45.51519 -3.52412 39020 ft 478 kts 212°
2026-05-06 20:33 45.46725 -3.56463 39019 ft 478 kts 212°
2026-05-06 20:34 45.41032 -3.61264 39026 ft 478 kts 212°
2026-05-06 20:34 45.35306 -3.66080 39017 ft 478 kts 212°
2026-05-06 20:35 45.29575 -3.70890 39024 ft 478 kts 212°
2026-05-06 20:35 45.23842 -3.75689 39022 ft 478 kts 212°
2026-05-06 20:36 45.18109 -3.80478 39020 ft 478 kts 212°
2026-05-06 20:36 45.12374 -3.85257 39026 ft 478 kts 212°
2026-05-06 20:37 45.06638 -3.90025 39020 ft 478 kts 212°
2026-05-06 20:37 45.00904 -3.94781 39022 ft 478 kts 212°
2026-05-06 20:38 44.95163 -3.99531 39021 ft 478 kts 212°
2026-05-06 20:38 44.89426 -4.04267 39022 ft 478 kts 212°
2026-05-06 20:39 44.83681 -4.08998 39038 ft 478 kts 212°
2026-05-06 20:39 44.77935 -4.13719 39036 ft 478 kts 212°
2026-05-06 20:40 44.72192 -4.18427 39025 ft 478 kts 212°
2026-05-06 20:40 44.66446 -4.23126 39015 ft 478 kts 212°
2026-05-06 20:41 44.60699 -4.27815 39026 ft 477 kts 212°
2026-05-06 20:41 44.54958 -4.32489 39025 ft 477 kts 211°
2026-05-06 20:42 44.49212 -4.37155 39023 ft 477 kts 211°
2026-05-06 20:42 44.43473 -4.41808 39022 ft 477 kts 211°
2026-05-06 20:43 44.37794 -4.46466 39023 ft 476 kts 212°
2026-05-06 20:43 44.32140 -4.51290 39020 ft 476 kts 213°
2026-05-06 20:44 44.26484 -4.56101 39023 ft 476 kts 213°
2026-05-06 20:44 44.20824 -4.60884 39020 ft 476 kts 212°
2026-05-06 20:45 44.15159 -4.65650 39019 ft 475 kts 212°
2026-05-06 20:45 44.09499 -4.70403 39021 ft 475 kts 212°
2026-05-06 20:46 44.03838 -4.75144 39020 ft 475 kts 212°
2026-05-06 20:46 43.98177 -4.79876 39020 ft 475 kts 212°
2026-05-06 20:47 43.92516 -4.84597 39015 ft 474 kts 212°
2026-05-06 20:47 43.86854 -4.89307 39022 ft 474 kts 212°
2026-05-06 20:48 43.81196 -4.94005 39016 ft 474 kts 212°
2026-05-06 20:48 43.75540 -4.98690 39017 ft 474 kts 212°
2026-05-06 20:49 43.69880 -5.03367 39023 ft 474 kts 212°
2026-05-06 20:49 43.64227 -5.08029 39021 ft 473 kts 212°
2026-05-06 20:50 43.58574 -5.12681 39022 ft 473 kts 212°
2026-05-06 20:50 43.52920 -5.17323 39020 ft 473 kts 212°
2026-05-06 20:51 43.47266 -5.21955 39025 ft 473 kts 212°
2026-05-06 20:51 43.41614 -5.26575 39021 ft 473 kts 212°
2026-05-06 20:52 43.35957 -5.31187 39024 ft 473 kts 212°
2026-05-06 20:52 43.30304 -5.35789 39022 ft 473 kts 212°
2026-05-06 20:53 43.24647 -5.40384 39022 ft 472 kts 212°
2026-05-06 20:53 43.18993 -5.44965 39020 ft 472 kts 212°
2026-05-06 20:54 43.13341 -5.49534 39022 ft 471 kts 212°
2026-05-06 20:54 43.07691 -5.54092 39022 ft 471 kts 212°
2026-05-06 20:55 43.02040 -5.58641 39016 ft 471 kts 212°
2026-05-06 20:55 42.96391 -5.63180 39011 ft 471 kts 212°
2026-05-06 20:56 42.90748 -5.67702 38997 ft 470 kts 212°
2026-05-06 20:56 42.85107 -5.72214 38986 ft 470 kts 212°
2026-05-06 20:57 42.81111 -5.75404 38978 ft 469 kts 212°
2026-05-06 20:57 42.75479 -5.79892 38972 ft 469 kts 212°
2026-05-06 20:58 42.70796 -5.83617 38969 ft 469 kts 212°
2026-05-06 20:58 42.65813 -5.87573 38968 ft 468 kts 212°
2026-05-06 20:59 42.60196 -5.92024 38963 ft 467 kts 212°
2026-05-06 20:59 42.54578 -5.96465 38963 ft 467 kts 212°
2026-05-06 21:00 42.49001 -6.00866 38956 ft 467 kts 212°
2026-05-06 21:00 42.43390 -6.05283 38950 ft 466 kts 211°
2026-05-06 21:01 42.37780 -6.09691 38948 ft 466 kts 211°
2026-05-06 21:01 42.32168 -6.14092 38947 ft 466 kts 211°
2026-05-06 21:02 42.26561 -6.18479 38946 ft 466 kts 211°
2026-05-06 21:02 42.20954 -6.22857 38945 ft 466 kts 211°
2026-05-06 21:03 42.15345 -6.27227 38927 ft 466 kts 211°
2026-05-06 21:03 42.09737 -6.31588 38945 ft 465 kts 211°
2026-05-06 21:04 42.04128 -6.35941 38944 ft 466 kts 211°
2026-05-06 21:04 41.98510 -6.40292 38938 ft 466 kts 211°
2026-05-06 21:05 41.92889 -6.44635 38936 ft 466 kts 211°
2026-05-06 21:05 41.87258 -6.48977 38912 ft 467 kts 211°
2026-05-06 21:06 41.81629 -6.53310 38925 ft 467 kts 211°
2026-05-06 21:06 41.75996 -6.57639 38927 ft 467 kts 211°
2026-05-06 21:07 41.70382 -6.61999 38921 ft 466 kts 214°
2026-05-06 21:07 41.65173 -6.67115 38919 ft 464 kts 219°
2026-05-06 21:08 41.60036 -6.72350 38921 ft 464 kts 218°
2026-05-06 21:08 41.54892 -6.77575 38916 ft 464 kts 218°
2026-05-06 21:09 41.49753 -6.82794 38917 ft 464 kts 218°
2026-05-06 21:09 41.44609 -6.88008 38914 ft 464 kts 218°
2026-05-06 21:10 41.39463 -6.93212 38909 ft 464 kts 218°
2026-05-06 21:10 41.34322 -6.98401 38884 ft 465 kts 218°
2026-05-06 21:11 41.29162 -7.03599 38885 ft 465 kts 218°
2026-05-06 21:11 41.24005 -7.08783 38886 ft 465 kts 218°
2026-05-06 21:12 41.18845 -7.13960 38886 ft 465 kts 218°
2026-05-06 21:12 41.13684 -7.19127 38885 ft 465 kts 218°
2026-05-06 21:13 41.08519 -7.24288 38912 ft 465 kts 218°
2026-05-06 21:13 41.03351 -7.29440 38921 ft 465 kts 218°
2026-05-06 21:14 40.98176 -7.34590 38921 ft 466 kts 218°
2026-05-06 21:14 40.92993 -7.39738 38926 ft 466 kts 218°
2026-05-06 21:15 40.87804 -7.44881 38901 ft 467 kts 218°
2026-05-06 21:15 40.82602 -7.50026 38903 ft 467 kts 218°
2026-05-06 21:16 40.77397 -7.55164 38910 ft 467 kts 218°
2026-05-06 21:16 40.73067 -7.59432 38914 ft 468 kts 218°
2026-05-06 21:17 40.67855 -7.64557 38913 ft 468 kts 218°
2026-05-06 21:17 40.61788 -7.70511 38912 ft 468 kts 218°
2026-05-06 21:18 40.57411 -7.74799 38914 ft 468 kts 218°
2026-05-06 21:18 40.52186 -7.79907 38916 ft 468 kts 218°
2026-05-06 21:19 40.47053 -7.84914 38933 ft 454 kts 218°
2026-05-06 21:19 40.41969 -7.89865 38934 ft 454 kts 218°
2026-05-06 21:20 40.36928 -7.94767 38951 ft 454 kts 218°
2026-05-06 21:20 40.31851 -7.99692 38952 ft 454 kts 218°
2026-05-06 21:20 40.29315 -8.02149 38820 ft 453 kts 218°
2026-05-06 21:21 40.26783 -8.04599 38273 ft 453 kts 218°
2026-05-06 21:21 40.24247 -8.07052 37444 ft 453 kts 218°
2026-05-06 21:21 40.21706 -8.09508 36442 ft 454 kts 218°
2026-05-06 21:21 40.19165 -8.11962 35369 ft 454 kts 217°
2026-05-06 21:22 40.16632 -8.14403 34335 ft 450 kts 217°
2026-05-06 21:22 40.14122 -8.16820 32989 ft 447 kts 217°
2026-05-06 21:22 40.11618 -8.19231 31359 ft 449 kts 217°
2026-05-06 21:22 40.09113 -8.21642 30145 ft 446 kts 216°
2026-05-06 21:23 40.06620 -8.24037 29051 ft 440 kts 216°
2026-05-06 21:23 40.04186 -8.26374 28529 ft 426 kts 216°
2026-05-06 21:23 40.01775 -8.28454 28276 ft 407 kts 209°
2026-05-06 21:23 39.99227 -8.29937 27752 ft 397 kts 200°
2026-05-06 21:24 39.96583 -8.30793 27444 ft 389 kts 190°
2026-05-06 21:24 39.93875 -8.31194 27271 ft 394 kts 188°
2026-05-06 21:24 39.91143 -8.31587 27100 ft 395 kts 188°
2026-05-06 21:24 39.88418 -8.31999 26938 ft 393 kts 188°
2026-05-06 21:25 39.85709 -8.32416 26761 ft 392 kts 188°
2026-05-06 21:25 39.82999 -8.32833 26606 ft 393 kts 188°
2026-05-06 21:25 39.80290 -8.33250 26440 ft 391 kts 188°
2026-05-06 21:25 39.77600 -8.33663 26325 ft 385 kts 188°
2026-05-06 21:26 39.74971 -8.34065 26220 ft 375 kts 188°
2026-05-06 21:26 39.72424 -8.34452 26109 ft 362 kts 188°
2026-05-06 21:26 39.70010 -8.35088 25786 ft 350 kts 201°
2026-05-06 21:26 39.67910 -8.36657 25539 ft 357 kts 219°
2026-05-06 21:27 39.65948 -8.38802 25309 ft 380 kts 220°
2026-05-06 21:27 39.63869 -8.41090 25068 ft 403 kts 220°
2026-05-06 21:27 39.61698 -8.43465 24823 ft 409 kts 220°
2026-05-06 21:27 39.59522 -8.45830 24578 ft 407 kts 220°
2026-05-06 21:28 39.57355 -8.48176 24335 ft 406 kts 220°
2026-05-06 21:28 39.55186 -8.50518 24122 ft 405 kts 219°
2026-05-06 21:28 39.53022 -8.52850 23880 ft 404 kts 219°
2026-05-06 21:28 39.50860 -8.55179 23627 ft 402 kts 219°
2026-05-06 21:29 39.48718 -8.57483 23125 ft 400 kts 219°
2026-05-06 21:29 39.46586 -8.59775 22534 ft 396 kts 219°
2026-05-06 21:29 39.44483 -8.62034 21795 ft 392 kts 219°
2026-05-06 21:29 39.42395 -8.64276 21039 ft 388 kts 219°
2026-05-06 21:30 39.40329 -8.66492 20312 ft 384 kts 219°
2026-05-06 21:30 39.38280 -8.68687 19572 ft 381 kts 219°
2026-05-06 21:30 39.36253 -8.70858 18874 ft 377 kts 220°
2026-05-06 21:30 39.34243 -8.73009 18161 ft 373 kts 220°
2026-05-06 21:31 39.32253 -8.75136 17345 ft 370 kts 220°
2026-05-06 21:31 39.30281 -8.77243 16572 ft 366 kts 220°
2026-05-06 21:31 39.28329 -8.79328 15845 ft 362 kts 220°
2026-05-06 21:31 39.26429 -8.81354 15457 ft 348 kts 220°
2026-05-06 21:32 39.24575 -8.83330 14801 ft 344 kts 220°
2026-05-06 21:32 39.20905 -8.87239 13346 ft 341 kts 220°
2026-05-06 21:32 39.19085 -8.89179 12643 ft 337 kts 220°
2026-05-06 21:33 39.17286 -8.91095 11929 ft 334 kts 220°
2026-05-06 21:33 39.15502 -8.92992 11277 ft 330 kts 220°
2026-05-06 21:33 39.13771 -8.94830 11043 ft 313 kts 219°
2026-05-06 21:33 39.12141 -8.96560 10874 ft 295 kts 220°
2026-05-06 21:34 39.10594 -8.98200 10490 ft 285 kts 220°
2026-05-06 21:34 39.09072 -8.99814 9931 ft 282 kts 219°
2026-05-06 21:34 39.07562 -9.01416 9326 ft 280 kts 219°
2026-05-06 21:34 39.06065 -9.03003 8717 ft 278 kts 219°
2026-05-06 21:35 39.04577 -9.04578 8203 ft 273 kts 219°
2026-05-06 21:35 39.03120 -9.06120 8041 ft 276 kts 219°
2026-05-06 21:35 39.01627 -9.07697 7995 ft 277 kts 219°
2026-05-06 21:35 39.00115 -9.09176 7995 ft 277 kts 212°
2026-05-06 21:36 38.98372 -9.10300 7996 ft 277 kts 202°
2026-05-06 21:36 38.96574 -9.11218 7997 ft 278 kts 202°
2026-05-06 21:36 38.94808 -9.12139 7998 ft 277 kts 202°
2026-05-06 21:36 38.93002 -9.13095 8000 ft 278 kts 202°
2026-05-06 21:37 38.91240 -9.14037 7999 ft 278 kts 202°
2026-05-06 21:37 38.89457 -9.14991 7999 ft 278 kts 202°
2026-05-06 21:37 38.87653 -9.15958 7998 ft 278 kts 202°
2026-05-06 21:37 38.85867 -9.16915 8001 ft 278 kts 203°
2026-05-06 21:38 38.84085 -9.17868 8000 ft 277 kts 203°
2026-05-06 21:38 38.82302 -9.18820 8001 ft 277 kts 203°
2026-05-06 21:38 38.80547 -9.19757 8000 ft 277 kts 203°
2026-05-06 21:38 38.78767 -9.20706 8000 ft 277 kts 203°
2026-05-06 21:39 38.76985 -9.21657 7996 ft 277 kts 203°
2026-05-06 21:39 38.75204 -9.22606 7997 ft 277 kts 203°
2026-05-06 21:39 38.73429 -9.23573 7995 ft 277 kts 206°
2026-05-06 21:39 38.71860 -9.24981 8001 ft 276 kts 224°
2026-05-06 21:40 38.70657 -9.26899 7997 ft 277 kts 234°
2026-05-06 21:40 38.69531 -9.28895 7999 ft 277 kts 234°
2026-05-06 21:40 38.68390 -9.30881 8000 ft 277 kts 234°
2026-05-06 21:40 38.67403 -9.32993 7999 ft 277 kts 244°
2026-05-06 21:41 38.66618 -9.35246 8000 ft 278 kts 246°
2026-05-06 21:41 38.65827 -9.37503 8000 ft 278 kts 245°
2026-05-06 21:41 38.65026 -9.39751 8000 ft 277 kts 245°
2026-05-06 21:41 38.63900 -9.41713 7998 ft 270 kts 221°
2026-05-06 21:42 38.62282 -9.42843 8004 ft 267 kts 196°
2026-05-06 21:42 38.60435 -9.43025 8003 ft 268 kts 178°
2026-05-06 21:42 38.58580 -9.42953 7944 ft 265 kts 179°
2026-05-06 21:42 38.56732 -9.42881 7554 ft 267 kts 179°
2026-05-06 21:43 38.54883 -9.42750 7003 ft 265 kts 171°
2026-05-06 21:43 38.53200 -9.41863 6471 ft 263 kts 145°
2026-05-06 21:43 38.52010 -9.40126 5920 ft 262 kts 118°
2026-05-06 21:43 38.51547 -9.37882 5355 ft 264 kts 90°
2026-05-06 21:44 38.51912 -9.35628 4806 ft 258 kts 63°
2026-05-06 21:44 38.52933 -9.33804 4340 ft 250 kts 46°
2026-05-06 21:44 38.54100 -9.32158 4061 ft 249 kts 44°
2026-05-06 21:44 38.55236 -9.30506 4005 ft 247 kts 46°
2026-05-06 21:45 38.56326 -9.28794 4001 ft 249 kts 48°
2026-05-06 21:45 38.57387 -9.27025 4000 ft 251 kts 50°
2026-05-06 21:45 38.58426 -9.25241 4000 ft 250 kts 48°
2026-05-06 21:45 38.59662 -9.23756 3964 ft 236 kts 32°
2026-05-06 21:46 38.61044 -9.22751 3710 ft 224 kts 23°
2026-05-06 21:46 38.62449 -9.21973 3421 ft 217 kts 19°
2026-05-06 21:46 38.63830 -9.21243 3127 ft 211 kts 20°
2026-05-06 21:46 38.65160 -9.20532 2840 ft 204 kts 20°
2026-05-06 21:47 38.66446 -9.19841 2568 ft 193 kts 19°
2026-05-06 21:47 38.67615 -9.19214 2326 ft 172 kts 19°
2026-05-06 21:47 38.68666 -9.18656 2104 ft 154 kts 18°
2026-05-06 21:47 38.69591 -9.18157 1901 ft 135 kts 18°
2026-05-06 21:48 38.70446 -9.17706 1745 ft 136 kts 18°
2026-05-06 21:48 38.71368 -9.17211 1496 ft 155 kts 19°
2026-05-06 21:48 38.72331 -9.16681 1209 ft 149 kts 20°
2026-05-06 21:48 38.73277 -9.16143 1016 ft 149 kts 19°
2026-05-06 21:49 38.74255 -9.15657 825 ft 146 kts 18°
2026-05-06 21:49 38.75150 -9.15179 643 ft 134 kts 19°
2026-05-06 21:49 38.76010 -9.14713 489 ft 132 kts 17°
2026-05-06 21:49 38.76887 -9.14255 370 ft 135 kts 17°
2026-05-06 21:50 38.77696 -9.13851 360 ft 108 kts 21°
2026-05-06 21:50 38.78143 -9.13590 359 ft 37 kts 24°
2026-05-06 21:50 38.78336 -9.13402 359 ft 22 kts 48°
2026-05-06 21:50 38.78364 -9.13286 360 ft 11 kts 119°
2026-05-06 21:51 38.78290 -9.13272 359 ft 12 kts 197°
2026-05-06 21:51 38.78201 -9.13316 359 ft 15 kts 202°
2026-05-06 21:51 38.78100 -9.13371 360 ft 17 kts 201°
2026-05-06 21:51 38.77980 -9.13404 359 ft 19 kts 182°
2026-05-06 21:52 38.77847 -9.13367 353 ft 21 kts 167°
2026-05-06 21:52 38.77700 -9.13332 359 ft 22 kts 168°
2026-05-06 21:52 38.77612 -9.13309 360 ft 7 kts 149°
2026-05-06 21:52 38.77603 -9.13244 356 ft 8 kts 88°
2026-05-06 21:53 38.77604 -9.13232 355 ft 0 kts 85°